www.pogodaiklimat.ru

Погода и климат >> Архив погоды >> Южная Африка >> Порт-Альфред


ПОГОДА в Порт-Альфред

  • Прогноз погоды в Порт-Альфред
  • Монитор погоды в Порт-Альфред

АРХИВ ПОГОДЫ в Порт-Альфред

Время (UTC), дата Ветер
(напр.,м/с)
 
Видим.   Явления Облачность Т
(С)
Тd
(С)
f
(%)
Тe
(С)
Тes
(С)
Комфортность P
(гПа)
Po
(гПа)
Тmin
(С)
Tmax
(С)
R
(мм)
R24
(мм)
S
(см)
18 13.09 З 5 н/о н/о +14.7 +8.0 64 +13 +13 1020.6 1010.5 +14.7 +20.5
21 13.09 З 4 н/о н/о +13.5 +7.9 69 +12 +12 1021.6 1011.5 +13.4 +20.5
00 14.09 З 4 н/о н/о +12.1 +7.2 72 +10 +10 1022.0 1011.8 +11.6 +20.5
03 14.09 СЗ 3 н/о н/о +11.3 +7.0 75 +10 +10 1022.2 1012.0 +10.8 +20.5
06 14.09 З 4 н/о н/о +13.3 +7.7 69 +12 +12 1023.0 1012.9 +10.8
09 14.09 ЮЗ 2 н/о н/о +17.3 +7.1 51 +18 +18 1022.5 1012.5 +10.8 +17.7
12 14.09 Ю 2 н/о н/о +17.3 +8.2 55 +18 +18 1020.9 1010.9 +10.8 +18.1
15 14.09 ЮВ 3 н/о н/о +16.6 +8.8 60 +16 +16 1019.8 1009.8 +16.6 +18.1
18 14.09 В 2 н/о н/о +15.8 +11.2 74 +16 +16 1020.9 1010.9 +15.6 +18.1
21 14.09 В 3 н/о н/о +15.4 +11.4 77 +15 +15 1020.0 1010.0 +15.0 +18.1
00 15.09 В 3 н/о н/о +13.8 +10.9 83 +13 +13 1018.8 1008.7 +13.7 +18.1
03 15.09 СВ 1 н/о н/о +11.7 +9.4 86 +11 +11 1017.7 1007.6 +11.7 +18.1
06 15.09 З 1 н/о н/о +14.1 +11.2 83 +14 +14 1017.8 1007.7 +9.9
09 15.09 Ю 2 н/о н/о +20.1 +13.1 64 +23 +23 комфорт 1016.9 1007.1 +9.9 +20.1
12 15.09 ЮВ 3 н/о н/о +22.9 +12.9 53 +26 +26 жарко 1015.6 1005.9 +9.9 +22.9
15 15.09 В 3 н/о н/о +22.5 +12.0 51 +25 +25 комфорт 1015.8 1006.0 +21.7 +23.0
18 15.09 штиль 0 н/о н/о +17.3 +11.6 69 +17 +17 1017.3 1007.4 +17.2 +23.0
21 15.09 З 2 н/о н/о +15.4 +10.2 71 +15 +15 1017.2 1007.2 +15.3 +23.0
00 16.09 З 3 н/о н/о +13.0 +8.5 74 +12 +12 1016.3 1006.2 +13.0 +23.0
03 16.09 З 2 н/о н/о +10.1 +6.8 80 +9 +9 1015.4 1005.2 +10.1 +23.0
06 16.09 З 3 н/о н/о +14.5 +9.3 71 +14 +14 1016.8 1006.8 +9.4
09 16.09 ЮЗ 4 н/о н/о +24.2 +9.2 39 +25 +25 комфорт 1016.5 1006.8 +9.4 +24.7
12 16.09 ЮЗ 4 н/о н/о +23.3 +15.9 63 +28 +28 душно 1016.1 1006.4 +9.4 +25.5
15 16.09 ЮЗ 3 н/о н/о +21.7 +15.8 69 +25 +25 комфорт 1017.1 1007.3 +21.6 +25.5
18 16.09 З 2 н/о н/о +17.5 +15.3 87 +18 +18 1019.4 1009.4 +17.5 +25.5
21 16.09 СЗ 2 н/о н/о +15.7 +14.0 90 +16 +16 1020.0 1010.0 +15.7 +25.5
00 17.09 З 2 н/о н/о +12.9 +11.8 93 +12 +12 1019.7 1009.6 +12.9 +25.5
03 17.09 З 2 н/о н/о +11.6 +10.8 95 +10 +10 1018.9 1008.7 +11.6 +25.5
06 17.09 С 2 н/о н/о +16.3 +15.3 94 +17 +17 1019.5 1009.5 +11.4
09 17.09 ЮВ 3 н/о н/о +21.8 +16.4 71 +26 +26 душно 1018.8 1009.0 +11.4 +22.2
12 17.09 ЮВ 5 н/о н/о +22.0 +15.6 67 +26 +26 душно 1017.0 1007.2 +11.4 +22.4
15 17.09 В 4 н/о н/о +20.3 +16.4 78 +23 +23 комфорт 1017.2 1007.4 +20.3 +22.4
18 17.09 В 2 н/о н/о +18.5 +15.9 85 +20 +20 1019.1 1009.2 +18.2 +22.4
21 17.09 В 3 н/о н/о +18.9 +15.9 83 +20 +20 1019.8 1009.9 +18.2 +22.4
00 18.09 СЗ 1 н/о н/о +15.2 +13.5 90 +16 +16 1020.7 1010.6 +14.8 +22.4
03 18.09 СЗ 1 н/о н/о +15.4 +14.1 92 +16 +16 1020.5 1010.5 +14.4 +22.4
06 18.09 В 3 н/о н/о +17.9 +15.9 88 +18 +18 1022.0 1012.0 +13.1
09 18.09 В 4 н/о н/о +21.7 +14.4 63 +25 +25 комфорт 1022.2 1012.4 +13.1 +22.2
12 18.09 В 7 н/о н/о +22.1 +15.7 67 +26 +26 душно 1020.5 1010.7 +13.1 +22.7
15 18.09 В 7 н/о н/о +20.0 +15.7 76 +22 +22 комфорт 1021.3 1011.4 +19.9 +22.7
18 18.09 В 5 н/о н/о +19.2 +15.5 79 +20 +20 1023.5 1013.6 +19.1 +22.7
21 18.09 В 5 н/о н/о +18.3 +15.2 82 +18 +18 1023.6 1013.6 +18.3 +22.7
00 19.09 В 5 н/о н/о +18.1 +15.0 82 +18 +18 1021.6 1011.6 +18.0 +22.7
03 19.09 В 6 н/о н/о +17.9 +15.9 88 +17 +17 1020.8 1010.8 +17.6 +22.7
06 19.09 В 9 н/о н/о +19.3 +16.9 86 +20 +20 1021.4 1011.5 +17.6
09 19.09 В 8 н/о н/о +22.5 +17.9 75 +28 +28 душно 1018.6 1008.8 +17.6 +22.8
12 19.09 В 9 н/о н/о +23.0 +18.2 74 +29 +29 очень
душно
1014.7 1005.0 +17.6 +24.3
15 19.09 В 12 н/о н/о +20.8 +18.0 84 +24 +24 комфорт 1014.2 1004.4 +20.2 +24.3
18 19.09 В 9 н/о н/о +20.8 +18.0 84 +24 +24 комфорт 1013.6 1003.8 +19.8 +24.3
21 19.09 В 5 н/о н/о +20.7 +17.5 82 +24 +24 комфорт 1011.5 1001.7 +19.8 +24.3
00 20.09 В 5 н/о н/о +18.9 +17.0 89 +20 +20 1009.9 1000.1 +18.9 +24.3
03 20.09 В 1 н/о н/о +17.1 +15.4 90 +18 +18 1008.8 998.9 +17.1 +24.3
06 20.09 З 1 н/о н/о +18.0 +16.7 92 +19 +19 1009.2 999.4 +14.9
09 20.09 ЮЗ 3 н/о н/о +27.5 +16.3 50 +31 +31 душно 1010.4 1000.9 +14.9 +28.4
12 20.09 ЮЗ 7 н/о н/о +22.1 +16.6 71 +26 +26 душно 1011.3 1001.6 +14.9 +28.4
15 20.09 З 4 н/о н/о +21.2 +14.7 66 +24 +24 комфорт 1011.7 1001.9 +21.2 +28.4

 

Местоположение метеостанции Порт-Альфред (Южная Африка): широта -33.56 долгота 26.88 высота над уровнем моря 84 м.

В архиве по умолчанию представлена погода в Порт-Альфред за последнюю неделю. Архивные данные за месяц целиком и за предыдущие месяцы, начиная с января 2011 года, Вы можете получить, выбрав интересующий диапазон дат из раскрывающегося списка и нажав кнопку "Ввод!".


*Определитесь, кто Вы:
робот инопланетянин человек

Внимание! Время в таблицах - всемирное. Для получения местного времени необходимо прибавить поправку, которая равна 2 ч.

Смотрите также архив погоды в соседних городах и на ближайших метеорологических станциях:

Погода в Грейамстауне (Южная Африка) (47 км)
Погода на Острове Бёрд (Южная Африка) (63 км)
Погода в Аэропорту Бишо (Южная Африка) (82 км)
Погода в Форт-Бофорте (Южная Африка) (90 км)
Погода в Парке Addo Elephant (Южная Африка) (106 км)
Погода в Ист-Лондоне (Южная Африка) (106 км)
Погода в Нгкура (Южная Африка) (115 км)
Погода в Порт-Элизабет (Южная Африка) (126 км)
Погода в Стуттерхейме (Южная Африка) (129 км)
Погода в Эйтенхахе (Южная Африка) (134 км)

Пояснения к столбцам:

Ветер - указаны скорость ветра в м/с - средняя за 10 мин, порывы в срок и между сроками (в фигурных скобках) и направление, откуда дует ветер: С - северный, СВ - северо-восточный, В - восточный, ЮВ - юго-восточный, Ю - южный, ЮЗ - юго-западный, З - западный, СЗ - северо-западный.
Видимость - горизонтальная дальность видимости в метрах или километрах. При видимости от 1 до 10 км при отсутствии осадков обычно наблюдается дымка, при ухудшении видимости до 1 км и менее - туман. В сухую погоду видимость может ухудшаться дымом, пылью или мглою.
Явления - указаны атмосферные явления, наблюдавшиеся в срок или в последний час перед сроком; фигурными скобками обозначены явления, наблюдавшиеся между сроками (за 1-3 часа до срока); квадратными скобками обозначены град или гололедные отложения с указанием их диаметра в мм.
Облачность - указаны через наклонную черту общая и нижняя облачность в баллах и высота нижней границы облаков в метрах; квадратными скобками обозначены формы облаков: Ci - перистые, Cs - перисто-слоистые, Cc - перисто-кучевые, Ac - высококучевые, As - высокослоистые, Sc - слоисто-кучевые, Ns - слоисто-дождевые, Cu - кучевые, Cb - кучево-дождевые. Подробнее классификацию облаков см. в Атласе облаков (PDF).
T - Температура воздуха - температура, измеренная на высоте 2 м над землей.
Td - Температура точки росы - температура, при понижении до которой содержащийся в воздухе водяной пар достигнет насыщения.
f - Относительная влажность воздуха - влажноcть воздуха, измеренная на высоте 2 м над землей.
Te - Эффективная температура - температура, которую ощущает одетый по сезону человек в тени. Характеристика душности погоды. При расчете учитывается влияние влажности воздуха и скорости ветра на теплоощущения человека.
Tes - Эффективная температура на солнце - температура, которую ощущает человек, с поправкой на солнечный нагрев. Характеристика знойности погоды. Зависит от высоты солнца над горизонтом, облачности и скорости ветра. Ночью, в пасмурную погоду, а также при ветре 12 м/с и более поправка равна нулю.
P - Атмосферное давление - приведенное к уровню моря атмосферное давление.
Po - Атмосферное давление - измеренное на уровне метеостанции атмосферное давление.
Tmin - Минимальная температура - минимум температуры воздуха на высоте 2 м над землей.
Tmax - Максимальная температура - максимум температуры воздуха на высоте 2 м над землей.
R - Количество осадков - Количество выпавших осадков за период времени, мм. При наведении курсора мыши на число - период времени, за который выпало указанное количество осадков.
R24 - Количество осадков - Количество выпавших осадков за 24 часа, мм.
S - Снежный покров - Высота снежного покрова, см. При наведении курсора мыши на число - состояние снежного покрова и степень покрытия местности в баллах.